Change the Weather History Date:

Friday, December 20, 2013

  Actual Average Record
Temperature  
Mean Temperature 42 °F -  
Max Temperature 50 °F 49 °F - ()
Min Temperature 33 °F 32 °F - ()
Degree Days  
Heating Degree Days 23    
Moisture  
Dew Point 30 °F    
Average Humidity 58    
Maximum Humidity 87    
Minimum Humidity 34    
Precipitation  
Precipitation 0.00 in 0.06 in - ()
Sea Level Pressure  
Sea Level Pressure 30.33 in    
Wind  
Wind Speed 12 mph ()    
Max Wind Speed 28 mph    
Max Gust Speed 40 mph    
Visibility 14.3 miles    
Events      
T = Trace of Precipitation, MM = Missing Value Source: Averaged Metar Reports

Daily Weather History Graph

Daily Weather History Graph

Search for Another Location

Airport or City:

Trip Planner

Search our weather history database for the weather conditions in past years. The results will help you decide how hot, cold, wet, or windy it might be!

Date:

Astronomy

Dec. 20, 2013 Rise Set
Actual Time 8:33 AM CET 5:50 PM CET
Civil Twilight 8:02 AM CET 6:21 PM CET
Nautical Twilight 7:28 AM CET 6:55 PM CET
Astronomical Twilight 6:55 AM CET 7:28 PM CET
Moon 8:58 PM CET (12/20) 10:18 AM CET (12/20)
Length of Visible Light 10h 18m
Length of Day
9h 16m
Waning Gibbous, 92% of the Moon is Illuminated
Dec 20
Waning Gibbous
Dec 25
Last Quarter
Jan 1
New
Jan 8
First Quarter
Jan 16
Full

Hourly Weather History & Observations

Time (CET) Temp. Windchill Dew Point Humidity Pressure Visibility Wind Dir Wind Speed Gust Speed Precip Events Conditions
12:00 AM 41 °F - 33 °F 64% 30.13 in 19 mi NNE 3.5 mph - -   Scattered Clouds
12:00 AM 41.0 °F 39.0 °F 32.0 °F 70% 30.06 in 6.2 mi NNE 3.5 mph - N/A   Partly Cloudy
12:30 AM 41.0 °F 35.8 °F 32.0 °F 70% 30.06 in 6.2 mi NNW 8.1 mph - N/A   Partly Cloudy
1:00 AM 41 °F - 33 °F 64% 30.14 in 19 mi North 8.1 mph - -   Scattered Clouds
1:00 AM 41.0 °F 36.4 °F 32.0 °F 70% 30.09 in 6.2 mi North 6.9 mph - N/A   Partly Cloudy
1:30 AM 41.0 °F 34.3 °F 32.0 °F 70% 30.09 in 6.2 mi North 11.5 mph - N/A   Partly Cloudy
2:00 AM 41 °F - 33 °F 63% 30.17 in 19 mi NNW 16.1 mph - -   Scattered Clouds
2:00 AM 41.0 °F 32.8 °F 32.0 °F 70% 30.09 in 6.2 mi North 16.1 mph - N/A   Partly Cloudy
2:30 AM 41.0 °F 34.7 °F 32.0 °F 70% 30.12 in 6.2 mi North 10.4 mph - N/A   Partly Cloudy
3:00 AM 41 °F - 32 °F 61% 30.20 in 19 mi NNW 11.5 mph - -   Scattered Clouds
3:00 AM 41.0 °F 34.7 °F 32.0 °F 70% 30.15 in 6.2 mi NNW 10.4 mph - N/A   Partly Cloudy
3:30 AM 41.0 °F 32.8 °F 30.2 °F 65% 30.15 in 6.2 mi North 16.1 mph - N/A   Partly Cloudy
4:00 AM 41 °F - 30 °F 53% 30.25 in 19 mi NNW 13.8 mph - -   Scattered Clouds
4:00 AM 41.0 °F 33.9 °F 30.2 °F 65% 30.18 in 6.2 mi North 12.7 mph - N/A   Partly Cloudy
4:30 AM 41.0 °F 33.9 °F 28.4 °F 61% 30.18 in 6.2 mi NNW 12.7 mph - N/A   Partly Cloudy
5:00 AM 40 °F - 29 °F 53% 30.27 in 19 mi North 4.6 mph - -  
5:00 AM 39.2 °F 35.9 °F 28.4 °F 65% 30.21 in 6.2 mi North 4.6 mph - N/A   Partly Cloudy
5:30 AM 39.2 °F 37.0 °F 28.4 °F 65% 30.21 in 6.2 mi North 3.5 mph - N/A   Partly Cloudy
6:00 AM 40 °F - 29 °F 52% 30.29 in 19 mi North 16.1 mph - -  
6:00 AM 41.0 °F 32.8 °F 28.4 °F 61% 30.21 in 6.2 mi North 16.1 mph - N/A   Partly Cloudy
6:30 AM 41.0 °F 31.6 °F 28.4 °F 61% 30.21 in 6.2 mi North 20.7 mph - N/A   Partly Cloudy
7:00 AM 41 °F - 28 °F 49% 30.31 in 19 mi North 24.2 mph - -  
7:00 AM 41.0 °F 31.1 °F 28.4 °F 61% 30.24 in - North 23.0 mph 40.3 mph N/A   Clear
7:30 AM 41.0 °F 31.4 °F 28.4 °F 61% 30.27 in - North 21.9 mph - N/A   Clear
8:00 AM 41 °F - 28 °F 49% 30.32 in 19 mi North 21.9 mph - -  
8:00 AM 41.0 °F 30.2 °F 28.4 °F 61% 30.27 in - North 27.6 mph 40.3 mph N/A   Clear
8:30 AM 41.0 °F 32.2 °F 28.4 °F 61% 30.27 in - North 18.4 mph - N/A   Clear
9:00 AM 41 °F - 29 °F 50% 30.36 in 19 mi North 18.4 mph - -  
9:00 AM 41.0 °F 32.2 °F 28.4 °F 61% 30.30 in - North 18.4 mph - N/A   Clear
9:30 AM 41.0 °F 32.2 °F 28.4 °F 61% 30.30 in - North 18.4 mph - N/A   Clear
10:00 AM 44 °F - 29 °F 43% 30.37 in 19 mi North 23.0 mph - -  
10:00 AM 42.8 °F 33.1 °F 28.4 °F 57% 30.30 in - North 25.3 mph 38.0 mph N/A   Clear
10:30 AM 42.8 °F 33.8 °F 28.4 °F 57% 30.33 in - North 21.9 mph - N/A   Clear
11:00 AM 45 °F - 29 °F 41% 30.41 in 19 mi North 21.9 mph - -  
11:00 AM 44.6 °F 36.4 °F 28.4 °F 53% 30.36 in - North 20.7 mph 32.2 mph N/A   Clear
11:30 AM 46.4 °F 39.0 °F 28.4 °F 50% 30.36 in - North 19.6 mph - N/A   Clear
12:00 PM 47 °F - 29 °F 37% 30.40 in 19 mi North 23.0 mph - -   Scattered Clouds
12:00 PM 46.4 °F 39.0 °F 28.4 °F 50% 30.36 in - North 19.6 mph - N/A   Clear
12:30 PM 46.4 °F 39.0 °F 28.4 °F 50% 30.36 in - North 19.6 mph - N/A   Clear
1:00 PM 48 °F - 29 °F 35% 30.40 in 19 mi North 18.4 mph - -   Scattered Clouds
1:00 PM 48.2 °F - 28.4 °F 46% 30.36 in - North 18.4 mph - N/A   Clear
1:30 PM 48.2 °F - 28.4 °F 46% 30.36 in - North 17.3 mph - N/A   Clear
2:00 PM 49 °F - 29 °F 34% 30.39 in 19 mi North 21.9 mph - -   Scattered Clouds
2:00 PM 48.2 °F - 28.4 °F 46% 30.36 in - North 20.7 mph - N/A   Clear
2:30 PM 48.2 °F - 30.2 °F 50% 30.36 in - North 17.3 mph - N/A   Clear
3:00 PM 49 °F - 30 °F 35% 30.40 in 19 mi North 17.3 mph - -   Scattered Clouds
3:00 PM 48.2 °F - 28.4 °F 46% 30.36 in - North 19.6 mph - N/A   Clear
3:30 PM 50.0 °F - 30.2 °F 47% 30.36 in - North 18.4 mph - N/A   Clear
4:00 PM 50 °F - 31 °F 35% 30.40 in 19 mi North 17.3 mph - -   Clear
4:00 PM 50.0 °F - 30.2 °F 47% 30.36 in - North 16.1 mph - N/A   Clear
4:30 PM 48.2 °F - 30.2 °F 50% 30.39 in - North 15.0 mph - N/A   Clear
5:00 PM 49 °F - 30 °F 36% 30.43 in 19 mi North 12.7 mph - -   Clear
5:00 PM 48.2 °F - 30.2 °F 50% 30.39 in - North 12.7 mph - N/A   Clear
5:30 PM 46.4 °F 41.1 °F 30.2 °F 53% 30.39 in - North 11.5 mph - N/A   Clear
6:00 PM 45 °F - 30 °F 44% 30.45 in 19 mi North 11.5 mph - -   Clear
6:00 PM 44.6 °F 38.8 °F 30.2 °F 57% 30.39 in - North 11.5 mph - N/A   Clear
6:30 PM 42.8 °F 38.6 °F 30.2 °F 61% 30.42 in - North 6.9 mph - N/A   Clear
7:00 PM 42 °F - 30 °F 52% 30.48 in 19 mi North 9.2 mph - -  
7:00 PM 42.8 °F 38.0 °F 30.2 °F 61% 30.42 in - North 8.1 mph - N/A   Clear
7:30 PM 41.0 °F 35.2 °F 30.2 °F 65% 30.45 in - North 9.2 mph - N/A   Clear
8:00 PM 42 °F - 31 °F 53% 30.51 in 19 mi North 8.1 mph - -  
8:00 PM 41.0 °F 36.4 °F 30.2 °F 65% 30.45 in - North 6.9 mph - N/A   Clear
8:30 PM 39.2 °F 35.9 °F 30.2 °F 70% 30.45 in - ESE 4.6 mph - N/A   Clear
9:00 PM 39 °F - 30 °F 61% 30.55 in 19 mi NE 2.3 mph - -  
9:00 PM 39.2 °F - 30.2 °F 70% 30.48 in - Variable 2.3 mph - N/A   Clear
9:30 PM 37.4 °F 32.1 °F 30.2 °F 75% 30.45 in - NNW 6.9 mph - N/A   Clear
10:00 PM 37 °F - 30 °F 67% 30.55 in 19 mi NNW 4.6 mph - -  
10:00 PM 37.4 °F 34.9 °F 30.2 °F 75% 30.45 in - NW 3.5 mph - N/A   Clear
10:30 PM 35.6 °F - 30.2 °F 81% 30.48 in - ESE 2.3 mph - N/A   Clear
11:00 PM 34 °F - 29 °F 75% 30.58 in 19 mi WNW 2.3 mph - -  
11:00 PM 35.6 °F - 28.4 °F 75% 30.48 in - Variable 1.2 mph - N/A   Clear
11:30 PM 33.8 °F 29.6 °F 30.2 °F 87% 30.48 in - NNW 4.6 mph - N/A   Clear